Starlink 35889

operational
NORAD ID: 67189 Int'l Des: 2025-303 Owner: SPXS Country: US Constellation: starlink
LEOCIRCULAR

About Starlink 35889

Description loading...

Live Position

Loading 3D Globe...

Upcoming Passes

Altitude History

Altitude vs Time

uPlot chart will show altitude changes over time

Two-Line Element Set

1 67189C 25303AC 25352.76854167 .00691950 00000+0 10115-2 0 3527
2 67189 43.0050 61.7764 0007457 282.6547 272.5384 16.03391042 14
Epoch: Dec 18, 2025 • Age: 54 hours

Current Status

Altitude 265.2 km
Velocity 7.75 km/s
Sub-Earth Point 40.94°N, 55.9°W
Launch Date Dec 17, 2025
Age 2 days
Type internet

Technical Details

Classification Payload
Mass 575.00 kg
Dry Mass 530.00 kg
Total Mass 575.00 kg
Length 0.30 m
Diameter 4.10 m
Span 29.00 m
Shape Box + pan
Manufacturer SPXS
Bus Type Starlink V2MO
Phase Status In Orbit
Owner/State SPXS/US

Large Constellations

Loading constellations...